GW5858 Weather Reports


Display with metric or nautical units.
time (UTC)temp
F
wind
direction
speed
MPH
gust
MPH
rain 1hr
in
rain 24hr
in
rain mn
in
humidity
%
barometer
mb
20260510070016 50 333 0.0 2.0 0.01 0.25 0.05 92 1009.4
20260510064510 50 20 0.0 2.0 0.01 0.25 0.05 92 1008.9
20260510063037 51 20 0.0 3.0 0.02 0.25 0.05 92 1009.1
20260510061531 51 348 0.0 3.0 0.02 0.25 0.05 93 1008.8
20260510060035 51 348 0.0 2.0 0.03 0.24 0.04 93 1008.9
20260510054525 51 346 0.0 2.0 0.04 0.24 0.04 93 1008.9
20260510053005 51 350 1.0 3.0 0.03 0.23 0.03 93 1008.5
20260510051506 50 346 1.0 3.0 0.03 0.23 0.03 93 1008.2
20260510050007 51 297 0.0 0.0 0.01 0.21 0.01 93 1008.2
20260510044514 50 297 0.0 1.0 0.00 0.20 0.00 93 1007.8
20260510043005 49 286 0.0 0.0 0.00 0.20 0.00 92 1007.6
20260510041525 50 286 0.0 0.0 0.00 0.20 0.00 91 1007.2
20260510040035 51 286 0.0 2.0 0.00 0.20 0.00 90 1006.9
20260510034518 52 286 1.0 2.0 0.00 0.20 0.20 90 1007.1
20260510033039 52 300 0.0 0.0 0.00 0.20 0.20 90 1007.4
20260510031513 52 300 0.0 0.0 0.00 0.20 0.20 90 1007.1
20260510030013 51 300 0.0 1.0 0.00 0.20 0.20 90 1007.1
20260510024509 50 300 0.0 2.0 0.00 0.20 0.20 90 1006.7
20260510023026 51 300 0.0 2.0 0.00 0.20 0.20 90 1006.4
20260510021525 51 300 0.0 2.0 0.00 0.20 0.20 90 1006.5
20260510020023 52 300 0.0 2.0 0.00 0.20 0.20 89 1006.6
20260510014521 52 295 1.0 2.0 0.00 0.20 0.20 88 1006.5
20260510013014 52 259 1.0 6.0 0.00 0.20 0.20 88 1006.4
20260510011524 53 245 2.0 9.0 0.00 0.20 0.20 87 1006.0
20260510010029 52 260 3.0 6.0 0.01 0.20 0.20 89 1006.0
20260510004525 52 310 2.0 5.0 0.03 0.20 0.20 89 1005.5
20260510003024 52 277 1.0 3.0 0.07 0.20 0.20 90 1005.1
20260510001522 52 327 0.0 6.0 0.13 0.20 0.20 90 1005.6
20260510000020 52 258 5.0 9.0 0.15 0.19 0.19 89 1005.5
20260509234520 52 254 1.0 7.0 0.17 0.17 0.17 89 1005.8
20260509233011 52 72 3.0 11.0 0.13 0.13 0.13 87 1006.4
20260509231525 53 15 5.0 19.0 0.07 0.07 0.07 84 1006.3
20260509230026 57 296 8.0 18.0 0.04 0.04 0.04 77 1005.4
20260509224522 60 319 2.0 10.0 0.00 0.00 0.00 73 1004.0
20260509223021 61 281 0.0 2.0 0.00 0.00 0.00 70 1003.7
20260509221523 61 281 0.0 2.0 0.00 0.00 0.00 69 1003.4
20260509220017 62 281 1.0 2.0 0.00 0.00 0.00 68 1003.6
20260509214507 62 281 1.0 3.0 0.00 0.00 0.00 67 1003.8
20260509213006 62 258 1.0 3.0 0.00 0.00 0.00 68 1003.8
20260509211504 62 313 1.0 4.0 0.00 0.00 0.00 67 1004.2
20260509210015 62 269 1.0 4.0 0.00 0.00 0.00 67 1004.1
20260509204508 63 324 2.0 8.0 0.00 0.00 0.00 68 1004.1
20260509203007 62 266 1.0 7.0 0.00 0.00 0.00 69 1004.2
20260509201507 63 260 3.0 8.0 0.00 0.00 0.00 64 1004.4
20260509200007 65 266 3.0 8.0 0.00 0.00 0.00 62 1004.4
20260509194508 65 281 2.0 7.0 0.00 0.00 0.00 62 1004.4
20260509193008 65 251 3.0 11.0 0.00 0.00 0.00 63 1004.8
20260509191524 65 275 3.0 9.0 0.00 0.00 0.00 60 1005.0
20260509190024 65 336 3.0 9.0 0.00 0.00 0.00 63 1005.1
20260509184533 65 338 6.0 12.0 0.00 0.00 0.00 61 1005.4
20260509183019 65 325 5.0 12.0 0.00 0.00 0.00 65 1005.2
20260509181529 65 327 5.0 11.0 0.00 0.00 0.00 64 1005.4
20260509180013 65 240 4.0 12.0 0.00 0.00 0.00 64 1005.6
20260509174514 65 271 3.0 10.0 0.00 0.00 0.00 65 1006.0
20260509173025 65 319 5.0 11.0 0.00 0.00 0.00 65 1006.1
20260509171536 65 286 3.0 8.0 0.00 0.00 0.00 65 1006.2
20260509170023 65 273 2.0 9.0 0.00 0.00 0.00 66 1006.1
20260509164521 64 290 4.0 13.0 0.00 0.00 0.00 64 1006.2
20260509163017 62 236 2.0 11.0 0.00 0.00 0.00 67 1006.4
20260509161514 64 352 5.0 10.0 0.00 0.00 0.00 63 1006.5
20260509160016 65 291 2.0 6.0 0.00 0.00 0.00 63 1006.5
20260509154531 64 318 1.0 9.0 0.00 0.00 0.00 62 1006.6
20260509153025 62 306 3.0 7.0 0.00 0.00 0.00 65 1006.6
20260509151522 63 311 1.0 9.0 0.00 0.00 0.00 65 1006.7
20260509150020 60 276 3.0 7.0 0.00 0.00 0.00 68 1006.7
20260509144519 60 337 4.0 10.0 0.00 0.00 0.00 71 1006.8
20260509143019 59 213 2.0 4.0 0.00 0.00 0.00 73 1006.9
20260509141535 58 304 3.0 8.0 0.00 0.00 0.00 73 1007.0
20260509140028 57 317 2.0 6.0 0.00 0.00 0.00 75 1007.1
20260509134526 57 286 2.0 6.0 0.00 0.00 0.00 76 1007.2
20260509133025 56 257 4.0 11.0 0.00 0.00 0.00 77 1007.3
20260509131524 56 287 4.0 10.0 0.00 0.01 0.00 77 1007.4
20260509130026 55 257 3.0 8.0 0.00 0.01 0.00 78 1007.4
20260509124532 55 259 3.0 0.0 0.00 0.01 0.00 79 1007.5
20260509121527 53 246 1.0 4.0 0.00 0.02 0.00 82 1007.7
20260509120021 52 282 0.0 2.0 0.00 0.02 0.00 84 1007.8
20260509114526 50 304 0.0 1.0 0.00 0.02 0.00 85 1007.7
20260509113024 48 304 0.0 2.0 0.00 0.03 0.00 86 1007.7
20260509111519 46 304 0.0 0.0 0.00 0.06 0.00 86 1007.7
20260509110010 45 304 0.0 0.0 0.00 0.07 0.00 87 1007.9
20260509104524 43 304 0.0 0.0 0.00 0.07 0.00 86 1007.8
20260509103007 43 304 0.0 0.0 0.00 0.08 0.00 86 1007.7
20260509101505 42 304 0.0 0.0 0.00 0.09 0.00 87 1007.8
20260509100038 42 304 0.0 0.0 0.00 0.09 0.00 86 1007.7
20260509094516 41 304 0.0 0.0 0.00 0.09 0.00 85 1007.6
20260509093020 42 304 0.0 0.0 0.00 0.09 0.00 84 1007.7
20260509091509 42 304 0.0 0.0 0.00 0.09 0.00 83 1007.7
20260509090008 42 304 0.0 0.0 0.00 0.09 0.00 83 1007.7
20260509084515 42 304 0.0 0.0 0.00 0.09 0.00 81 1007.8
20260509083009 43 304 0.0 0.0 0.00 0.09 0.00 79 1007.9
20260509081510 43 304 0.0 0.0 0.00 0.09 0.00 79 1008.0
20260509080010 43 304 0.0 0.0 0.00 0.09 0.00 78 1008.0
20260509074521 42 304 0.0 0.0 0.00 0.09 0.00 77 1008.3
20260509073015 42 304 0.0 2.0 0.00 0.09 0.00 76 1008.4
20260509071518 42 304 0.0 2.0 0.00 0.09 0.00 75 1008.5